• In India
  • List of Countries
  • For 7 days
  • Water Temperature
  • Satellite Maps
  • Weather Map
  • Weather Widgets
  • user-avatar
    Login

    Hourly Weather Zakrzyce

    Today, 26 September, Wednesday

    Time Temperature Precipitation Wind Pressure Humidity
    00:00 +6°C° 0 mm 2 mps 766 mmHg 72%
    01:00 +6°C° 0 mm 2 mps 766 mmHg 73%
    02:00 +6°C° 0 mm 2 mps 766 mmHg 73%
    03:00 +5°C° 0 mm 2 mps 766 mmHg 73%
    04:00 +5°C° 0 mm 2 mps 766 mmHg 73%
    05:00 +5°C° 0 mm 2 mps 766 mmHg 72%
    06:00 +6°C° 0 mm 2 mps 766 mmHg 71%
    07:00 +6°C° 0 mm 2 mps 766 mmHg 70%
    08:00 +8°C° 0 mm 3 mps 766 mmHg 62%
    09:00 +10°C° 0 mm 3 mps 765 mmHg 55%
    10:00 +12°C° 0 mm 4 mps 765 mmHg 48%
    11:00 +13°C° 0 mm 4 mps 765 mmHg 46%
    12:00 +14°C° 0 mm 4 mps 764 mmHg 44%
    13:00 +14°C° 0 mm 4 mps 763 mmHg 42%
    14:00 +15°C° 0 mm 4 mps 763 mmHg 42%
    15:00 +15°C° 0 mm 4 mps 762 mmHg 43%
    16:00 +15°C° 0 mm 4 mps 761 mmHg 44%
    17:00 +14°C° 0 mm 4 mps 761 mmHg 46%
    18:00 +13°C° 0 mm 4 mps 761 mmHg 48%
    19:00 +12°C° 0 mm 4 mps 761 mmHg 50%
    20:00 +12°C° 0 mm 4 mps 761 mmHg 51%
    21:00 +11°C° 0 mm 4 mps 761 mmHg 51%
    22:00 +11°C° 0 mm 4 mps 761 mmHg 51%
    23:00 +11°C° 0 mm 4 mps 761 mmHg 51%

    Tomorrow, 27 September, Thursday

    Time Temperature Precipitation Wind Pressure Humidity
    00:00 +12°C° 0 mm 4 mps 761 mmHg 51%
    01:00 +12°C° 0 mm 4 mps 761 mmHg 52%
    02:00 +12°C° 0 mm 4 mps 760 mmHg 52%
    03:00 +12°C° 0 mm 4 mps 760 mmHg 53%
    04:00 +12°C° 0 mm 4 mps 760 mmHg 54%
    05:00 +12°C° 0 mm 4 mps 760 mmHg 56%
    06:00 +12°C° 0 mm 4 mps 760 mmHg 58%
    07:00 +12°C° 0 mm 4 mps 760 mmHg 60%
    08:00 +14°C° 0 mm 4 mps 760 mmHg 59%
    09:00 +15°C° 0 mm 4 mps 760 mmHg 58%
    10:00 +18°C° 0 mm 4 mps 760 mmHg 57%
    11:00 +19°C° 0 mm 4 mps 759 mmHg 56%
    12:00 +20°C° 0 mm 4 mps 759 mmHg 56%
    13:00 +22°C° 0 mm 4 mps 758 mmHg 55%
    14:00 +22°C° 0 mm 4 mps 758 mmHg 56%
    15:00 +22°C° 0 mm 3 mps 757 mmHg 56%
    16:00 +22°C° 0 mm 3 mps 757 mmHg 57%
    17:00 +20°C° 0 mm 3 mps 756 mmHg 60%
    18:00 +19°C° 0 mm 3 mps 756 mmHg 64%
    19:00 +17°C° 0 mm 3 mps 756 mmHg 68%
    20:00 +17°C° 0 mm 3 mps 756 mmHg 66%
    21:00 +16°C° 0 mm 3 mps 755 mmHg 65%
    22:00 +16°C° 0 mm 3 mps 755 mmHg 64%
    23:00 +16°C° 0 mm 3 mps 755 mmHg 64%

    Day after tomorrow, 28 September, Friday

    Time Temperature Precipitation Wind Pressure Humidity
    00:00 +14°C° 0 mm 3 mps 754 mmHg 63%
    01:00 +14°C° 0 mm 4 mps 754 mmHg 63%
    02:00 +13°C° 0 mm 3 mps 753 mmHg 64%
    03:00 +13°C° 0 mm 3 mps 753 mmHg 65%
    04:00 +12°C° 0 mm 3 mps 753 mmHg 65%
    05:00 +12°C° 0 mm 3 mps 753 mmHg 66%
    06:00 +12°C° 0 mm 3 mps 753 mmHg 67%
    07:00 +12°C° 0 mm 3 mps 753 mmHg 67%
    08:00 +13°C° 0 mm 4 mps 753 mmHg 66%
    09:00 +14°C° 0 mm 4 mps 753 mmHg 65%
    10:00 +17°C° 0 mm 4 mps 753 mmHg 63%
    11:00 +17°C° 0 mm 4 mps 753 mmHg 65%
    12:00 +17°C° 0 mm 4 mps 753 mmHg 66%
    13:00 +17°C° 0 mm 4 mps 753 mmHg 68%
    14:00 +15°C° 0 mm 4 mps 753 mmHg 67%
    15:00 +15°C° 0 mm 4 mps 753 mmHg 66%
    16:00 +15°C° 0 mm 4 mps 753 mmHg 65%
    17:00 +14°C° 0 mm 3 mps 753 mmHg 67%
    18:00 +12°C° 0 mm 3 mps 753 mmHg 69%
    19:00 +12°C° 0 mm 2 mps 754 mmHg 71%
    20:00 +12°C° 0 mm 2 mps 754 mmHg 71%
    21:00 +10°C° 0 mm 2 mps 754 mmHg 71%
    22:00 +10°C° 0 mm 2 mps 755 mmHg 71%
    23:00 +10°C° 0 mm 2 mps 755 mmHg 70%

    29 September, Saturday

    Time Temperature Precipitation Wind Pressure Humidity
    00:00 +10°C° 0 mm 2 mps 755 mmHg 70%
    01:00 +9°C° 0 mm 2 mps 755 mmHg 70%
    02:00 +9°C° 0 mm 2 mps 755 mmHg 69%
    03:00 +9°C° 0 mm 2 mps 755 mmHg 69%
    04:00 +9°C° 0 mm 3 mps 755 mmHg 69%
    05:00 +8°C° 0 mm 3 mps 756 mmHg 71%
    06:00 +8°C° 0 mm 3 mps 756 mmHg 72%
    07:00 +7°C° 0 mm 3 mps 756 mmHg 74%
    08:00 +9°C° 0 mm 3 mps 757 mmHg 68%
    09:00 +10°C° 0 mm 3 mps 757 mmHg 62%
    10:00 +11°C° 0 mm 4 mps 757 mmHg 57%
    11:00 +12°C° 0 mm 4 mps 757 mmHg 53%
    12:00 +13°C° 0 mm 4 mps 757 mmHg 50%
    13:00 +13°C° 0 mm 3 mps 757 mmHg 46%
    14:00 +13°C° 0 mm 3 mps 757 mmHg 47%
    15:00 +13°C° 0 mm 3 mps 757 mmHg 47%
    16:00 +13°C° 0 mm 3 mps 757 mmHg 48%
    17:00 +13°C° 0 mm 2 mps 758 mmHg 52%
    18:00 +11°C° 0 mm 1 mps 758 mmHg 57%
    19:00 +10°C° 0 mm 1 mps 759 mmHg 62%
    20:00 +9°C° 0 mm 1 mps 759 mmHg 63%
    21:00 +9°C° 0 mm 1 mps 759 mmHg 64%
    22:00 +9°C° 0 mm 1 mps 759 mmHg 65%
    23:00 +8°C° 0 mm 1 mps 759 mmHg 66%

    30 September, Sunday

    Time Temperature Precipitation Wind Pressure Humidity
    00:00 +8°C° 0 mm 1 mps 759 mmHg 68%
    01:00 +7°C° 0 mm 0 mps 759 mmHg 69%
    02:00 +6°C° 0 mm 0 mps 759 mmHg 70%
    03:00 +6°C° 0 mm 0 mps 759 mmHg 71%
    04:00 +6°C° 0 mm 0 mps 758 mmHg 72%
    05:00 +6°C° 0 mm 0 mps 758 mmHg 72%
    06:00 +8°C° 0 mm 1 mps 758 mmHg 71%
    07:00 +8°C° 0 mm 1 mps 758 mmHg 70%
    08:00 +10°C° 0 mm 1 mps 758 mmHg 63%
    09:00 +12°C° 0 mm 1 mps 758 mmHg 55%
    10:00 +14°C° 0 mm 2 mps 758 mmHg 48%
    11:00 +14°C° 0 mm 2 mps 758 mmHg 44%
    12:00 +15°C° 0 mm 2 mps 757 mmHg 41%
    13:00 +16°C° 0 mm 2 mps 756 mmHg 38%
    14:00 +16°C° 0 mm 2 mps 756 mmHg 39%
    15:00 +16°C° 0 mm 2 mps 755 mmHg 40%
    16:00 +16°C° 0 mm 2 mps 755 mmHg 41%
    17:00 +14°C° 0 mm 2 mps 755 mmHg 44%
    18:00 +12°C° 0 mm 2 mps 755 mmHg 48%
    19:00 +10°C° 0 mm 2 mps 754 mmHg 52%
    20:00 +9°C° 0 mm 2 mps 754 mmHg 53%
    21:00 +9°C° 0 mm 2 mps 754 mmHg 54%
    22:00 +8°C° 0 mm 2 mps 754 mmHg 55%
    23:00 +8°C° 0 mm 2 mps 753 mmHg 56%

    1 October, Monday

    Time Temperature Precipitation Wind Pressure Humidity
    00:00 +7°C° 0 mm 2 mps 753 mmHg 58%
    01:00 +8°C° 0 mm 1 mps 752 mmHg 59%
    02:00 +8°C° 0 mm 1 mps 752 mmHg 61%
    03:00 +8°C° 0 mm 1 mps 751 mmHg 63%
    04:00 +7°C° 0 mm 1 mps 751 mmHg 65%
    05:00 +8°C° 0 mm 1 mps 750 mmHg 66%
    06:00 +8°C° 0 mm 1 mps 750 mmHg 66%
    07:00 +8°C° 0 mm 1 mps 750 mmHg 66%
    08:00 +10°C° 0 mm 2 mps 749 mmHg 60%
    09:00 +13°C° 0 mm 2 mps 749 mmHg 54%
    10:00 +15°C° 0 mm 2 mps 748 mmHg 48%
    11:00 +16°C° 0 mm 2 mps 748 mmHg 46%
    12:00 +18°C° 0 mm 3 mps 747 mmHg 45%
    13:00 +19°C° 0 mm 3 mps 746 mmHg 43%
    14:00 +19°C° 0 mm 3 mps 746 mmHg 44%
    15:00 +19°C° 0 mm 2 mps 745 mmHg 46%
    16:00 +19°C° 0 mm 2 mps 745 mmHg 47%
    17:00 +17°C° 0 mm 2 mps 745 mmHg 52%
    18:00 +15°C° 0 mm 1 mps 745 mmHg 56%
    19:00 +13°C° 0 mm 1 mps 745 mmHg 61%
    20:00 +12°C° 0 mm 1 mps 745 mmHg 63%
    21:00 +12°C° 0 mm 1 mps 745 mmHg 65%
    22:00 +11°C° 0 mm 1 mps 745 mmHg 67%
    23:00 +10°C° 0 mm 2 mps 745 mmHg 67%
    Show more